Flag for U.S.A. Weather past 2 weeks in Vevay, Indiana, U.S.A.

Now
68 °F

Clear.


Feels Like: 68 °F
Forecast: 63 / 87 °F
Wind: 7 mph from West

Location: Cincinnati / Northern Kentucky International Airport

Current Time: Aug 1, 2015 at 4:02:55 AM

Latest Report: Aug 1, 2015 at 2:52 AM


Visibility: 10 mi

Pressure: 29.96 "Hg

Humidity: 78%

Dew point: 61 °F

Location of VevayLocation

Historic Weather in Vevay — Graph

°F

Vevay temperature yesterday

Maximum temperature yesterday: 87 °F (at 2:52 PM)
Minimum temperature yesterday: 65 °F (at 6:52 AM)
Average temperature yesterday: 76 °F

Past Weeks' High & Low Weather Summary

 TemperatureHumidityPressure
High91 °F (Jul 28, 2:52 PM)97% (Jul 19, 2:52 AM)30.06 "Hg (Jul 19, 2:52 AM)
Low61 °F (Jul 25, 6:52 AM)29% (Jul 30, 3:52 PM)29.72 "Hg (Jul 21, 2:52 AM)
Average77 °F72%29.94 "Hg
* Reported Jul 17 2:52 AM — Aug 1 2:52 AM, Vevay, Weather by CustomWeather, © 2015

Note: Actual official high and low records may vary slightly from our data, if they occured in-between our weather recording intervals... More about our weather records

Advertising

Vevay weather history for previous 24 hours

 ConditionsComfort  
Time TempWeatherWind HumidityBarometerVisibility
2:52 AM
Sat, Aug 1
68 °FClear.7 mph78%29.96 "Hg10 mi
1:52 AM69 °FClear.3 mph76%29.97 "Hg10 mi
12:52 AM71 °FClear.7 mph71%29.96 "Hg10 mi
11:52 PM
Fri, Jul 31
71 °FClear.7 mph71%29.96 "Hg10 mi
10:52 PM76 °FPassing clouds.7 mph58%29.95 "Hg10 mi
9:52 PM76 °FPassing clouds.6 mph58%29.94 "Hg10 mi
8:52 PM78 °FPassing clouds.6 mph54%29.94 "Hg10 mi
7:52 PM82 °FScattered clouds.5 mph46%29.94 "Hg10 mi
6:52 PM85 °FPassing clouds.7 mph45%29.94 "Hg10 mi
5:52 PM86 °FPassing clouds.12 mph42%29.95 "Hg10 mi
4:52 PM87 °FScattered clouds.6 mph37%29.96 "Hg10 mi
3:52 PM87 °FScattered clouds.16 mph37%29.98 "Hg10 mi
2:52 PM87 °FPassing clouds.10 mph33%29.99 "Hg10 mi
1:52 PM85 °FPassing clouds.6 mph42%30.01 "Hg10 mi
11:52 AM83 °FSunny.7 mph53%30.03 "Hg10 mi
10:52 AM80 °FSunny.6 mph62%30.03 "Hg10 mi
8:52 AM66 °FSunny.No wind85%30.05 "Hg10 mi
7:52 AM66 °FSunny.No wind85%30.04 "Hg10 mi
6:52 AM65 °FClear.No wind86%30.03 "Hg10 mi
5:52 AM66 °FClear.No wind85%30.02 "Hg10 mi
4:52 AM66 °FClear.No wind86%30.02 "Hg10 mi
Weather by CustomWeather, © 2015

See weather overviewHow to use our weather pages